Weather History for Rawlins, WY

Change the Weather History Date:

Wednesday, October 2, 2013

  Actual Average Record
Temperature  
Mean Temperature 54 °F 48 °F  
Max Temperature 69 °F 63 °F 79 °F (1997)
Min Temperature 38 °F 34 °F 19 °F (1977)
Degree Days  
Heating Degree Days 11 16  
Month to date heating degree days 21 32  
Since 1 July heating degree days 236 418  
Cooling Degree Days 0 0  
Month to date cooling degree days 0 0  
Year to date cooling degree days 371 186  
Growing Degree Days 2 (Base 50)    
Moisture  
Dew Point 28 °F    
Average Humidity 44    
Maximum Humidity 70    
Minimum Humidity 17    
Precipitation  
Precipitation 0.00 in 0.03 in 0.62 in (1986)
Month to date precipitation 0.00 0.06  
Year to date precipitation 6.24 7.58  
Sea Level Pressure  
Sea Level Pressure 29.81 in    
Wind  
Wind Speed 6 mph (SSW)    
Max Wind Speed 21 mph    
Max Gust Speed 26 mph    
Visibility 10 miles    
Events      
T = Trace of Precipitation, MM = Missing Value Source: NWS Daily Summary

Daily Weather History Graph

Daily Weather History Graph

Search for Another Location

Airport:

Trip Planner

Search our weather history database for the weather conditions in past years. The results will help you decide how hot, cold, wet, or windy it might be!

Date:

Astronomy

Oct. 02, 2013 Rise Set
Actual Time 7:07 AM MDT 6:48 PM MDT
Civil Twilight 6:39 AM MDT 7:15 PM MDT
Nautical Twilight 6:07 AM MDT 7:48 PM MDT
Astronomical Twilight 5:34 AM MDT 8:20 PM MDT
Moon 4:41 AM MDT (10/2) 5:26 PM MDT (10/2)
Length of Visible Light 12h 36m
Length of Day
11h 41m
Waning Crescent, 6% of the Moon is Illuminated
Oct 2
Waning Crescent
Oct 4
New
Oct 11
First Quarter
Oct 18
Full
Oct 26
Last Quarter

Hourly Weather History & Observations

Time (MDT) Temp. Windchill Dew Point Humidity Pressure Visibility Wind Dir Wind Speed Gust Speed Precip Events Conditions
12:53 AM 53.1 °F - 28.9 °F 40% 29.81 in 10.0 mi West 8.1 mph - N/A   Clear
1:53 AM 46.9 °F - 30.0 °F 52% 29.84 in 10.0 mi WSW 5.8 mph - N/A   Clear
2:53 AM 44.1 °F 40.1 °F 28.9 °F 55% 29.83 in 10.0 mi ESE 6.9 mph - N/A   Clear
3:53 AM 42.1 °F 40.2 °F 28.9 °F 60% 29.85 in 10.0 mi South 3.5 mph - N/A   Clear
4:53 AM 44.1 °F 40.1 °F 28.9 °F 55% 29.84 in 10.0 mi SSW 6.9 mph - N/A   Clear
5:53 AM 39.0 °F - 28.9 °F 67% 29.87 in 10.0 mi Calm Calm - N/A   Clear
6:53 AM 37.9 °F - 28.9 °F 70% 29.91 in 10.0 mi Calm Calm - N/A   Partly Cloudy
7:53 AM 41.0 °F - 28.0 °F 60% 29.94 in 10.0 mi Calm Calm - N/A   Partly Cloudy
8:53 AM 45.0 °F - 28.9 °F 53% 29.93 in 10.0 mi Calm Calm - N/A   Clear
9:53 AM 51.1 °F - 28.9 °F 43% 29.91 in 10.0 mi Calm Calm - N/A   Clear
10:53 AM 57.0 °F - 30.9 °F 37% 29.88 in 10.0 mi ENE 4.6 mph - N/A   Overcast
11:53 AM 62.1 °F - 30.0 °F 30% 29.84 in 10.0 mi NE 4.6 mph - N/A   Overcast
12:53 PM 63.0 °F - 28.9 °F 28% 29.81 in 10.0 mi NNE 3.5 mph - N/A   Overcast
1:53 PM 66.0 °F - 27.0 °F 23% 29.78 in 10.0 mi WSW 10.4 mph - N/A   Mostly Cloudy
2:53 PM 68.0 °F - 26.1 °F 21% 29.76 in 10.0 mi SSW 17.3 mph 23.0 mph N/A   Overcast
3:53 PM 68.0 °F - 23.0 °F 18% 29.75 in 10.0 mi SW 13.8 mph 23.0 mph N/A   Clear
4:53 PM 66.9 °F - 24.1 °F 20% 29.73 in 10.0 mi SW 13.8 mph 23.0 mph N/A   Clear
5:53 PM 64.0 °F - 25.0 °F 23% 29.74 in 10.0 mi SSW 8.1 mph - N/A   Clear
6:53 PM 62.1 °F - 26.1 °F 25% 29.75 in 10.0 mi SW 9.2 mph - N/A   Clear
7:53 PM 57.0 °F - 27.0 °F 32% 29.75 in 10.0 mi SSW 3.5 mph - N/A   Clear
8:53 PM 53.1 °F - 30.9 °F 43% 29.75 in 10.0 mi ENE 6.9 mph - N/A   Scattered Clouds
9:53 PM 50.0 °F - 30.9 °F 48% 29.73 in 10.0 mi ENE 4.6 mph - N/A   Clear
10:53 PM 51.1 °F - 28.9 °F 43% 29.69 in 10.0 mi SW 6.9 mph - N/A   Clear
11:53 PM 48.0 °F - 32.0 °F 54% 29.71 in 10.0 mi SW 16.1 mph - N/A   Mostly Cloudy